SCP
1 1 0 0 0 0 0 0 0 0 0 0 0 0 0 0 0 0 0 1 1 1 1 1 1 1 1 1 1 1 0 0 0 1 1 1 1 1 1 1 1 1 1
1 1 0 0 0 0 0 0 0 0 0 0 0 0 0 0 0 0 0 1 1 1 1 1 1 1 1 1 1 1 0 0 0 1 1 1 1 1 1 1 1 1 1
1 1 0 0 0 1 0 0 0 0 0 0 0 0 0 0 0 0 0 0 1 1 1 1 1 1 1 1 1 1 1 1 1 1 1 1 1 1 1 1 1 1 0
1 1 0 0 1 1 0 0 0 0 0 0 0 1 1 1 0 0 0 0 0 1 1 1 1 1 1 1 1 1 1 1 1 1 1 1 1 1 1 1 1 1 0
1 1 0 0 1 1 0 0 0 0 0 0 0 0 1 1 1 0 0 0 0 0 0 1 1 1 1 1 1 1 1 1 1 1 0 0 1 1 1 1 1 0 0
1 1 0 1 1 1 0 0 0 0 0 0 0 0 0 0 0 0 0 0 0 0 0 0 1 1 1 1 1 1 1 1 1 1 1 1 1 1 1 1 0 0 0
1 1 1 1 1 1 0 0 0 0 0 0 0 0 0 0 0 0 0 0 0 0 0 0 1 1 1 1 1 1 1 1 1 1 1 1 1 1 1 0 0 0 0
1 1 1 1 1 1 1 1 0 0 0 0 0 0 0 0 0 0 0 0 1 1 1 1 0 0 1 1 1 1 1 1 1 1 1 1 1 1 0 0 0 0 0
1 1 1 1 1 1 1 1 0 0 0 0 0 0 0 0 0 0 0 0 0 1 1 1 1 0 0 0 0 1 1 1 1 1 1 1 1 1 0 0 0 0 0
1 1 1 1 1 1 1 1 1 0 0 0 0 0 0 0 0 0 0 0 0 0 0 1 1 1 1 0 0 1 1 1 1 1 1 1 1 1 1 1 1 1 1
1 1 1 1 1 1 1 1 1 0 0 0 0 0 0 0 0 0 0 0 0 0 0 1 1 1 1 1 1 1 1 1 1 1 1 1 1 1 1 1 1 1 1
1 1 1 1 1 1 1 1 1 1 1 0 0 0 0 0 0 0 0 0 0 0 0 0 0 1 1 1 1 1 1 1 1 1 1 1 1 1 1 1 1 1 1
1 1 1 1 1 1 1 1 1 1 1 1 1 1 1 1 0 0 0 0 0 0 0 0 0 0 1 1 1 1 1 1 1 1 1 1 1 1 1 1 1 1 1
1 1 1 1 1 1 1 1 1 1 1 1 1 1 1 1 1 1 1 0 0 0 0 0 0 0 1 1 1 1 1 1 1 1 1 1 1 1 1 1 1 1 1
1 1 1 1 1 1 1 1 1 1 1 1 1 1 1 1 1 1 1 1 1 0 0 0 0 0 1 1 1 1 1 1 1 1 1 0 0 1 1 1 1 1 1
1 1 1 1 1 1 2 2 2 2 1 1 1 1 1 1 1 1 1 1 1 1 0 0 0 0 1 1 1 0 1 1 1 1 1 0 0 0 0 0 0 0 0
1 1 1 1 1 2 2 2 2 2 1 1 1 1 1 1 1 1 1 1 1 1 1 1 0 0 1 1 0 0 1 1 1 1 1 1 0 0 0 0 0 0 0
2 2 2 2 2 2 3 3 2 2 1 1 1 1 1 1 1 1 1 1 1 1 1 1 1 1 1 1 1 0 1 1 1 1 1 1 1 0 0 0 0 0 0
3 2 3 3 3 3 3 2 2 2 1 1 1 1 1 1 1 1 0 1 1 1 1 1 1 1 1 1 1 1 1 1 1 1 1 1 1 1 0 0 0 0 0
4 4 4 4 4 4 4 3 2 1 1 1 1 1 1 1 1 1 0 1 1 1 1 1 1 1 1 1 1 1 1 1 1 1 1 1 1 0 0 0 0 0 0
6 6 6 5 5 5 4 3 2 1 1 1 1 1 1 1 1 1 1 1 1 1 1 1 1 1 1 1 1 1 1 1 1 1 1 1 0 0 0 0 0 0 0
8 8 7 7 6 5 5 4 3 2 1 1 1 1 1 1 1 1 1 1 1 1 1 1 1 1 1 1 1 1 1 1 1 1 1 0 0 0 0 0 0 0 0
9 9 9 8 7 6 5 4 3 2 1 1 1 1 1 1 1 1 2 1 1 1 1 1 1 1 1 1 1 1 1 1 1 1 1 0 0 0 0 0 0 0 0
10 10 10 9 8 6 6 5 4 3 2 2 2 1 1 1 2 2 2 2 2 2 1 1 1 1 1 1 1 1 1 1 1 1 0 0 0 0 0 0 0 0 0
10 11 10 9 8 7 7 6 4 3 3 2 2 2 2 2 1 2 2 2 2 2 1 1 1 1 1 1 0 0 0 1 1 1 0 0 0 0 0 0 0 0 0
10 10 10 9 8 8 7 6 5 4 3 2 2 2 2 2 1 1 2 2 2 2 1 1 1 1 0 0 0 0 0 1 1 1 0 1 1 0 0 0 0 0 0
Wind_Speed
3 3 2 1 1 2 2 2 2 2 1 1 1 2 3 3 3 3 2 8 8 8 9 9 9 9 9 9 9 9 9 9 9 8 7 7 7 7 7 7 7 6 6
3 3 3 2 2 2 2 2 2 2 1 1 1 2 3 3 3 3 2 4 7 7 7 8 8 8 9 9 9 8 8 8 8 8 7 6 6 7 7 7 7 6 6
3 3 3 2 2 2 2 2 2 2 1 1 2 2 2 3 4 4 3 2 3 5 7 7 7 8 8 8 8 8 8 7 8 7 7 7 6 6 6 6 6 6 5
4 3 3 2 2 2 2 2 2 2 1 1 1 1 2 2 3 4 3 3 2 2 4 6 6 7 8 8 7 7 7 7 7 7 6 6 6 6 6 6 5 5 4
4 3 2 2 2 2 2 2 2 2 2 1 1 1 1 2 2 3 3 3 3 2 2 3 5 6 7 7 7 6 6 6 6 6 6 6 6 6 6 6 5 5 5
4 4 3 2 2 2 1 2 2 1 2 2 2 2 1 1 1 2 3 3 3 3 2 2 2 3 6 6 6 6 6 7 7 6 6 6 7 7 7 6 6 6 6
4 4 3 2 2 2 2 2 2 2 1 2 3 2 2 2 1 1 2 2 2 3 3 2 2 1 2 4 5 6 6 7 7 7 6 6 6 6 6 6 6 6 6
3 4 3 2 2 3 3 2 2 2 1 2 3 2 2 2 2 1 1 2 2 2 3 3 3 2 1 1 2 5 6 6 6 6 6 6 6 6 6 6 6 6 6
3 3 3 3 2 3 3 3 3 4 2 0 1 3 3 2 1 1 0 0 1 1 2 2 3 3 3 2 2 4 5 5 5 5 6 6 5 5 6 6 6 6 6
2 3 3 3 3 2 3 3 3 3 3 1 1 0 2 3 3 0 1 1 0 1 1 2 2 2 2 2 3 4 5 5 5 5 5 5 5 5 5 5 5 5 4
1 2 3 3 3 2 2 2 2 2 2 2 2 1 1 1 2 3 1 1 1 1 1 2 2 2 2 2 2 3 6 5 4 4 4 4 4 5 5 5 5 4 4
1 1 2 2 2 2 2 2 2 2 2 2 2 2 2 2 2 2 2 1 1 1 1 0 1 2 2 2 3 5 6 5 4 3 3 3 3 4 4 5 4 4 4
1 1 1 2 2 2 2 2 2 1 2 2 2 1 1 2 2 3 3 2 1 1 1 1 1 2 2 2 2 5 5 5 4 4 3 3 3 3 3 3 3 3 3
2 2 2 2 2 2 2 2 2 1 2 2 2 2 1 1 2 2 3 3 2 1 1 2 1 1 2 2 3 4 3 5 5 4 4 3 3 3 2 2 2 1 1
2 2 2 2 2 1 2 2 2 1 1 1 1 1 1 1 1 1 2 3 4 2 1 2 1 2 2 2 3 3 3 5 6 5 5 4 3 3 3 2 2 2 1
2 2 2 2 2 2 2 2 1 1 2 1 1 2 1 0 1 1 1 1 2 3 2 2 2 2 2 2 3 3 3 5 6 6 5 5 4 4 3 3 3 2 2
2 3 2 2 2 2 2 2 2 2 2 1 1 2 0 1 1 1 1 1 2 3 2 1 1 1 1 1 1 1 2 2 2 5 5 5 5 5 4 4 4 3 3
2 3 2 2 2 1 2 2 2 2 2 1 1 1 1 1 1 1 1 1 1 2 3 2 1 0 1 1 1 1 1 2 2 4 6 6 5 5 5 5 4 4 4
3 3 3 2 2 1 2 2 2 2 2 2 1 2 1 2 1 1 1 1 1 1 2 3 1 0 0 0 0 1 1 1 2 3 5 6 6 6 6 6 5 5 5
3 3 3 2 2 2 2 2 2 2 2 1 1 2 1 2 2 2 1 1 2 2 2 2 1 0 0 1 1 0 1 1 1 1 2 3 4 6 6 6 6 6 6
4 3 3 2 2 2 2 2 2 2 2 1 1 1 1 1 2 2 2 2 2 2 2 2 1 1 0 0 1 1 1 1 2 1 1 1 1 2 3 5 6 6 6
3 3 3 3 2 2 2 4 3 2 2 2 1 0 0 1 0 2 3 3 4 3 3 2 2 2 2 2 1 1 1 0 2 2 1 2 1 2 3 3 5 7 7
3 3 3 3 2 2 3 4 5 3 2 2 2 1 0 1 0 0 1 1 1 2 4 4 3 4 3 4 3 2 2 2 3 2 1 2 1 3 3 4 6 7 7
4 3 3 3 3 2 3 3 4 2 2 1 2 2 1 1 1 1 1 1 1 1 2 3 4 4 4 4 4 4 3 2 2 2 2 1 2 2 3 3 5 6 7
4 4 4 4 3 3 4 4 4 2 1 1 2 2 2 2 2 2 2 1 1 3 2 3 4 4 4 4 4 2 1 1 1 2 1 2 2 2 2 3 4 5 6
5 4 4 4 4 4 4 5 5 2 1 1 2 2 2 2 3 3 3 2 2 3 2 2 2 2 2 2 3 4 4 3 2 2 2 2 1 1 2 2 2 2 3
Wind_Direction
158 160 157 153 157 153 161 162 155 156 165 168 155 137 150 148 138 143 159 170 177 180 180 181 181 179 178 179 182 184 187 189 190 190 190 192 193 194 193 193 191 190 193
157 156 154 154 161 168 168 161 159 158 160 152 150 145 148 145 143 145 159 173 176 178 179 181 181 181 182 182 184 185 187 191 190 188 189 193 195 195 194 196 194 194 194
157 153 154 157 166 157 156 145 142 136 137 146 153 152 147 150 153 158 164 165 175 178 177 182 185 187 188 187 189 190 193 194 191 189 190 190 191 191 190 191 192 193 195
152 143 147 161 159 145 142 138 136 120 126 135 134 143 145 148 160 166 165 167 169 176 189 192 194 192 190 189 193 195 196 192 186 189 191 192 194 192 187 188 192 192 192
152 140 145 149 138 126 125 144 133 141 141 137 139 132 136 136 158 167 170 175 176 173 183 194 194 191 192 191 192 193 191 189 191 195 198 197 196 193 192 195 196 195 202
146 140 141 142 124 112 110 126 135 141 148 147 114 83 81 124 129 144 159 160 167 170 171 183 191 204 196 192 192 195 193 193 199 202 202 203 200 196 197 196 200 209 215
140 137 139 136 135 139 154 152 137 130 117 117 98 63 29 38 92 113 123 135 158 165 161 176 178 188 196 196 198 200 203 204 201 201 199 203 201 193 190 198 209 218 226
144 143 143 145 142 137 138 141 136 125 123 124 127 111 47 5 4 63 111 145 153 141 165 179 172 173 176 182 189 199 207 210 207 205 206 206 201 196 199 209 217 225 232
147 143 142 140 138 141 154 160 151 143 154 245 159 141 145 198 298 349 354 129 172 165 176 167 173 180 185 182 195 205 203 203 202 210 212 209 202 202 209 214 221 227 232
140 142 143 143 142 142 149 169 163 151 146 164 283 161 159 154 150 165 338 336 224 199 203 179 170 181 185 183 189 181 184 186 189 200 205 197 195 200 205 212 223 232 233
127 136 143 146 144 141 150 164 149 146 152 160 166 162 109 92 122 141 198 301 342 291 231 184 178 184 185 182 193 186 177 183 191 196 192 191 194 198 202 210 223 230 231
87 108 130 141 143 142 151 165 160 150 158 153 152 151 146 148 169 152 170 192 220 285 293 181 186 196 198 194 194 179 179 182 185 185 184 189 195 203 210 218 224 227 234
110 122 135 139 141 151 155 154 151 152 152 150 158 161 159 173 162 154 150 164 180 280 337 324 232 205 203 199 208 194 190 184 182 185 185 185 192 201 209 216 226 234 242
171 158 133 139 144 149 147 139 138 155 143 148 148 147 150 179 157 156 158 150 136 335 337 283 306 232 209 196 200 191 193 190 190 192 187 186 192 200 206 206 220 229 239
161 144 133 134 127 125 122 124 128 152 135 135 147 142 139 180 154 159 152 153 152 166 250 261 263 263 213 198 201 188 195 198 195 200 200 202 205 211 215 214 217 217 227
145 137 129 125 120 111 102 106 112 114 109 103 118 118 125 152 116 132 162 169 159 155 187 236 231 247 211 203 196 193 203 202 204 201 206 210 217 220 218 215 216 218 228
139 139 144 142 130 119 115 113 124 121 112 98 94 107 119 146 117 130 143 145 142 136 151 250 263 268 159 194 178 200 207 207 213 210 215 218 222 222 218 218 220 221 229
144 140 138 135 137 130 126 128 138 124 122 118 126 117 110 105 90 113 121 130 143 149 147 170 246 299 209 204 191 196 213 207 210 217 218 220 220 222 223 224 226 227 232
146 138 132 134 142 137 129 134 134 130 131 138 142 136 146 123 111 113 120 119 137 124 128 143 180 236 289 271 83 284 259 273 231 219 219 221 224 226 225 229 231 233 234
151 147 146 149 152 143 133 137 129 120 117 117 122 131 137 147 163 160 142 145 133 114 114 122 133 205 281 308 93 266 304 294 272 262 238 221 223 228 232 233 233 234 235
169 163 154 150 142 143 152 147 147 135 131 120 95 124 137 136 165 172 161 164 144 140 135 137 150 111 268 170 234 230 247 280 289 255 257 268 242 245 246 243 239 237 235
170 159 166 164 156 165 157 156 150 146 142 145 165 227 25 58 136 180 178 174 166 167 178 174 182 192 222 221 222 205 199 147 291 273 184 274 231 251 252 240 240 237 236
174 164 169 161 170 190 168 160 161 161 162 178 187 197 291 19 22 173 171 130 178 197 186 177 189 212 211 212 193 200 206 204 227 236 167 266 260 256 257 252 246 240 239
172 173 176 176 175 200 186 179 170 163 155 182 185 185 192 260 295 171 136 81 335 280 219 199 206 219 217 209 195 197 205 220 272 259 161 224 264 258 266 263 252 239 239
181 182 178 177 179 207 189 180 167 156 174 234 232 213 197 214 242 167 125 124 301 298 279 239 228 228 229 217 191 157 149 125 286 275 216 188 244 262 270 265 264 249 243
190 186 188 190 191 203 197 184 170 167 185 246 265 255 230 224 227 190 173 186 244 271 292 320 309 303 281 259 213 190 188 190 217 261 241 189 224 197 287 270 259 256 252